User: anonymous   Login
Location: Newark
(34.1333°N, 7.9667°W)
Time: 21:37:00
(UTC+00:00)
Language:

PEGASUS DEB - Orbit

View from above orbital plane
View from above orbital plane
View from above satellite
View from above satellite

Ground track
Ground track

The orbit data is extracted from the following two-line orbital elements,

1 39315U 94029AFA 24057.12967313  .00003678  00000-0  12080-2 0  9992
2 39315  81.4997 355.8290 0417319 245.1382 110.5860 13.98505079544318
Epoch (UTC): 26 February 2024 03:06:43
Eccentricity: 0.0417319
inclination: 81.4997°
perigee height: 595 km
apogee height: 1202 km
right ascension of ascending node: 355.8290°
argument of perigee: 245.1382°
revolutions per day: 13.98505079
mean anomaly at epoch: 110.5860°
orbit number at epoch: 54431

The dashed part of the orbit path shows where the satellite is in the earth's shadow,  

DLR